Regional Weather Roundup
Issued by NWS

Home | Current Version | Previous Version | Graphics & Text | Print | Product List | Glossary On
Versions: 1 2 3 4 5 6 7 8 9 10 11 12 13 14 15 16 17 18 19 20 21 22 23 24 25 26 27 28 29 30 31 32 33 34 35 36 37 38 39 40 41 42 43 44 45 46 47 48 49 50
000
ASUS45 KBOI 252310
RWRID

IDAHO REGIONAL WEATHER ROUNDUP
NATIONAL WEATHER SERVICE BOISE ID
500 PM MDT MON MAY 25 2015

NOTE: "FAIR" INDICATES FEW OR NO CLOUDS BELOW 12000 FEET
WITH NO SIGNIFICANT WEATHER AND/OR OBSTRUCTIONS TO VISIBILITY

IDZ012-014-260000-
SOUTHWEST IDAHO


CITY           SKY/WX    TMP DP  RH WIND       PRES   REMARKS
BOISE          CLOUDY    68  48  48 S18G29    29.85R
CALDWELL       CLOUDY    72  46  40 S16       29.84R
$$

IDZ016-017-260000-
SOUTHCENTRAL IDAHO


CITY           SKY/WX    TMP DP  RH WIND       PRES   REMARKS
BURLEY         PTSUNNY   67  47  48 SW14      29.89S
JEROME         PTSUNNY   66  47  50 S16       29.90R
TWIN FALLS     LGT RAIN  61  47  59 S16G24    29.89R
$$

IDZ019>023-260000-
SOUTHEAST IDAHO


CITY           SKY/WX    TMP DP  RH WIND       PRES   REMARKS
IDAHO FALLS    TSTM      59  42  53 E6        29.90F
POCATELLO      MOSUNNY   71  43  36 W8        29.90F
REXBURG        PTSUNNY   64  43  46 SW6       29.90S
$$

IDZ006-010-011-018-031-032-260000-
CENTRAL IDAHO MOUNTAINS


CITY           SKY/WX    TMP DP  RH WIND       PRES   REMARKS
MCCALL         LGT RAIN  54  40  59 VRB7      29.94R
HAILEY         PTSUNNY   66  43  42 SW7G16    29.92F
STANLEY          N/A     62  34  35 NW7       29.95S
SALMON         PTSUNNY   70  41  35 SW8       29.83S
CHALLIS        PTSUNNY   69  37  30 NW6       29.84F
$$

IDZ002-004-006-007-026-260000-
NORTHERN IDAHO


CITY           SKY/WX    TMP DP  RH WIND       PRES   REMARKS
LEWISTON       PTSUNNY   74  46  36 VRB3      29.85S
LOWELL           N/A     58  54  86 VRB3      29.90R
COEUR D`ALENE  CLOUDY    64  48  55 W6        29.87F
MULLAN PASS    CLOUDY    46  44  93 CALM      29.98S
$$


USA.gov is the U.S. government's official web portal to all federal, state and local government web resources and services.